Regional Weather Roundup
Issued by NWS Charleston, WV

Home | Current Version | Previous Version | Graphics & Text | Print | Product List | Glossary On
Versions: 1 2 3 4 5 6 7 8 9 10 11 12 13 14 15 16 17 18 19 20 21 22 23 24 25 26 27 28 29 30 31 32 33 34 35 36 37 38 39 40 41 42 43 44 45 46 47 48 49 50
000
ASUS41 KRLX 291210
RWRRLX
West Virginia Regional Weather Roundup
National Weather Service Charleston WV
800 AM EDT FRI APR 29 2016

Note: "fair" indicates few or no clouds below 12,000 feet with no
significant weather and/or obstructions to visibility.

WVZ003-291300-
Northern Panhandle of West Virginia

CITY           SKY/WX    TMP DP  RH WIND       PRES   REMARKS
WHEELING       FOG       48  46  93 CALM      29.99R VSB 3/4
$$

WVZ009-291300-
Northwest West Virginia

CITY           SKY/WX    TMP DP  RH WIND       PRES   REMARKS
PARKERSBURG    FOG       54  52  93 VRB5      30.03R VSB 3/4
$$

WVZ006-291300-
Western West Virginia

CITY           SKY/WX    TMP DP  RH WIND       PRES   REMARKS
HUNTINGTON       N/A     57  55  93 S3        30.01R
$$

WVZ015-291300-
West Central West Virginia

CITY           SKY/WX    TMP DP  RH WIND       PRES   REMARKS
CHARLESTON     PTSUNNY   60  57  89 SW8       30.01R
$$

WVZ022-031-291300-
North Central West Virginia

CITY           SKY/WX    TMP DP  RH WIND       PRES   REMARKS
CLARKSBURG     CLOUDY    58  56  93 NW7       29.99R
MORGANTOWN     CLOUDY    52  50  93 CALM      30.00R FOG
$$

WVZ025-035-042-045-291300-
Southern West Virginia

CITY           SKY/WX    TMP DP  RH WIND       PRES   REMARKS
BECKLEY          N/A     56  53  90 SW7       30.04R
LOGAN          NOT AVBL
BLUEFIELD        N/A     56  49  77 W7        30.07R
LEWISBURG        N/A     57  54  89 CALM      30.03R
$$

WVZ047-291300-
Northern Mountains of West Virginia

CITY           SKY/WX    TMP DP  RH WIND       PRES   REMARKS
ELKINS         PTSUNNY   58  53  84 CALM      30.00R
$$

WVZ052-291300-
Eastern Panhandle of West Virginia

CITY           SKY/WX    TMP DP  RH WIND       PRES   REMARKS
MARTINSBURG    CLOUDY    46  43  89 CALM      30.05R FOG
PETERSBURG     CLOUDY    49  48  97 CALM      30.02S FOG
$$



USA.gov is the U.S. government's official web portal to all federal, state and local government web resources and services.